DateTimeUTC,F1_A11,F1_S11,BsB_S11,BsG_S11,BsR_S11,BbsB_S11,BbsG_S11,BbsR_S11,BaB_A11,BaG_A11,BaR_A11,Tu_S11,T_S11,Uu_S11,U_S11,P_S11,T1_A11
2021-08-21T03:00:00Z,00000200,20000000,,,,,,,0000.22,-000.06,0000.07,18.5,25.4,06.2,04.1,0675.7,31.0
2021-08-21T03:01:00Z,00000200,20000000,,,,,,,-000.27,0000.27,-000.13,18.5,25.4,06.2,04.1,0675.8,31.0
2021-08-21T03:02:00Z,00000200,20000000,,,,,,,-000.22,-000.32,-000.15,18.5,25.4,06.2,04.1,0675.7,31.0
2021-08-21T03:03:00Z,00000200,60000000,,,,,,,0000.54,0000.07,0000.12,18.5,25.4,06.2,04.1,0675.7,31.0
2021-08-21T03:04:00Z,00000200,40000000,0003.12,0001.84,0001.02,-000.32,0000.04,-000.14,0000.74,0000.55,0000.56,18.7,25.2,06.4,04.3,0676.7,31.0
2021-08-21T03:05:00Z,00000200,00000000,0001.83,0002.31,0001.29,0000.34,-000.06,-000.00,0000.32,0000.46,0000.43,18.7,25.2,06.5,04.4,0676.8,31.0
2021-08-21T03:06:00Z,00000200,00000000,0002.42,0001.67,0000.51,-000.43,0000.23,-000.03,0000.68,0000.83,0000.46,18.7,25.2,06.6,04.4,0676.8,31.0
2021-08-21T03:07:00Z,00000200,00000000,0002.19,0001.45,0001.31,-000.33,0000.20,0000.06,0000.46,0000.29,0000.16,18.7,25.2,06.6,04.4,0676.8,31.0
2021-08-21T03:08:00Z,00000200,00000000,0002.30,0001.70,0001.04,-000.06,0000.46,0000.29,0000.38,0000.21,0000.30,18.7,25.2,06.5,04.4,0676.8,31.0
2021-08-21T03:09:00Z,00000200,00000000,0001.90,0001.82,0000.82,0000.47,0000.35,0000.02,0000.86,0000.67,0000.12,18.7,25.2,06.5,04.4,0676.8,31.0
2021-08-21T03:10:00Z,00000200,00000000,0002.47,0001.86,0001.32,0000.24,0000.30,0000.14,0000.65,0000.76,0000.98,18.7,25.2,06.6,04.4,0676.8,31.0
2021-08-21T03:11:00Z,00000200,00000000,0002.03,0001.48,0001.06,0000.36,0000.02,0000.02,0000.71,0000.63,0000.67,18.7,25.1,06.7,04.5,0676.8,31.0
2021-08-21T03:12:00Z,00000200,00000000,0002.70,0001.66,0001.18,0000.14,0000.18,0000.21,0000.39,0000.78,0000.05,18.6,25.1,06.7,04.5,0676.8,31.0
2021-08-21T03:13:00Z,00000200,00000000,0003.07,0001.58,0001.03,0000.48,0000.23,0000.07,0000.49,-000.05,0000.39,18.6,25.1,06.7,04.5,0676.8,31.0
2021-08-21T03:14:00Z,00000200,00000000,0003.09,0001.56,0000.90,0000.12,0000.18,0000.13,0000.45,0000.49,0000.44,18.6,25.1,06.7,04.5,0676.8,31.0
2021-08-21T03:15:00Z,00000200,00000000,0003.10,0001.30,0000.85,0000.04,0000.23,0000.37,0000.43,0000.36,0000.11,18.6,25.1,06.7,04.5,0676.8,31.0
2021-08-21T03:16:00Z,00000200,00000000,0001.78,0001.42,0001.02,0000.29,0000.12,-000.07,0000.23,0000.52,0000.36,18.6,25.1,06.6,04.5,0676.7,31.0
2021-08-21T03:17:00Z,00000200,00000000,0001.90,0001.54,0000.95,-000.13,0000.08,-000.12,0000.95,0000.48,0000.10,18.6,25.1,06.6,04.4,0676.7,31.0
2021-08-21T03:18:00Z,00000200,00000000,0003.30,0001.68,0001.14,-000.08,0000.35,-000.03,0000.52,0000.36,0000.51,18.6,25.1,06.6,04.4,0676.7,31.0
2021-08-21T03:19:00Z,00000200,00000000,0002.98,0001.34,0000.96,0000.41,0000.12,0000.28,0000.47,0000.47,0000.40,18.6,25.1,06.7,04.5,0676.7,31.0
2021-08-21T03:20:00Z,00000200,00000000,0002.27,0001.76,0000.94,0000.40,0000.25,0000.26,0000.38,0000.69,0000.67,18.6,25.1,06.6,04.4,0676.7,31.0
2021-08-21T03:21:00Z,00000200,00000000,0002.40,0001.59,0000.82,-000.13,0000.21,0000.06,0000.49,0000.08,0000.09,18.6,25.1,06.5,04.4,0676.7,31.0
2021-08-21T03:22:00Z,00000200,00000000,0002.18,0001.63,0000.84,0000.56,-000.05,0000.12,0000.88,0000.96,0000.95,18.6,25.1,06.7,04.5,0676.7,31.0
2021-08-21T03:23:00Z,00000200,00000000,0002.12,0001.52,0001.15,0000.53,0000.16,0000.38,0000.11,0000.05,0000.05,18.6,25.1,06.8,04.6,0676.7,31.0
2021-08-21T03:24:00Z,00000200,00000000,0001.97,0001.28,0000.75,0000.23,0000.18,0000.40,0000.34,0000.56,0000.15,18.6,25.1,06.6,04.5,0676.7,30.9
2021-08-21T03:25:00Z,00000200,00000000,0001.59,0001.41,0000.81,-000.02,0000.16,0000.20,0000.69,0000.36,0000.13,18.6,25.0,06.5,04.4,0676.7,30.9
2021-08-21T03:26:00Z,00000200,00000000,0002.17,0001.34,0000.47,-000.07,0000.13,-000.13,0000.58,0000.91,0000.79,18.5,25.0,06.5,04.4,0676.7,31.0
2021-08-21T03:27:00Z,00000200,00000000,0001.80,0001.63,0000.90,0000.14,0000.24,0000.34,0000.30,0000.53,0000.32,18.6,25.1,06.5,04.4,0676.8,31.0
2021-08-21T03:28:00Z,00000200,00000000,0001.75,0001.55,0000.51,0000.46,0000.37,-000.06,0000.85,0000.63,0000.56,18.7,25.1,06.4,04.3,0676.8,31.0
2021-08-21T03:29:00Z,00000200,00000000,0002.23,0001.23,0001.05,0000.10,0000.21,0000.15,0000.25,0000.17,0000.21,18.8,25.1,06.4,04.3,0676.8,31.0
2021-08-21T03:30:00Z,00000200,00000000,0001.81,0001.80,0000.89,0000.21,0000.22,0000.00,0000.81,0000.57,0000.27,18.8,25.2,06.4,04.4,0676.8,31.0
2021-08-21T03:31:00Z,00000200,00000000,0002.71,0001.41,0000.87,0000.04,0000.20,0000.20,0000.03,-000.16,0000.26,18.8,25.2,06.4,04.4,0676.8,31.0
2021-08-21T03:32:00Z,00000200,00000000,0002.10,0001.39,0000.88,0000.04,-000.23,0000.06,0000.70,0000.75,0000.20,18.8,25.2,06.4,04.3,0676.8,31.0
2021-08-21T03:33:00Z,00000200,00000000,0001.80,0001.61,0000.71,0000.21,0000.02,0000.30,0000.29,0000.14,0000.52,18.8,25.2,06.5,04.4,0676.8,31.0
2021-08-21T03:34:00Z,00000200,00000000,0002.88,0001.36,0000.89,0000.28,-000.06,0000.27,0000.76,0000.83,0000.47,18.8,25.2,06.6,04.4,0676.8,31.0
2021-08-21T03:35:00Z,00000200,00000000,0002.70,0001.25,0000.92,0000.20,0000.10,0000.21,0000.16,0000.19,0000.16,18.8,25.2,06.6,04.4,0676.8,31.0
2021-08-21T03:36:00Z,00000200,00000000,0002.11,0001.44,0001.12,0000.00,0000.08,0000.08,0000.48,0000.46,0000.51,18.7,25.2,06.6,04.5,0676.8,31.0
2021-08-21T03:37:00Z,00000200,00000000,0001.77,0001.12,0000.76,0000.69,0000.16,0000.08,0000.25,0000.52,0000.34,18.7,25.1,06.5,04.4,0676.8,31.0
2021-08-21T03:38:00Z,00000200,00000000,0001.42,0001.79,0000.80,0000.34,0000.26,0000.50,0000.65,0000.25,0000.39,18.7,25.1,06.6,04.4,0676.8,31.0
2021-08-21T03:39:00Z,00000200,00000000,0003.10,0001.36,0000.96,0000.46,0000.51,0000.18,0000.64,0000.43,0000.24,18.7,25.1,06.7,04.5,0676.8,31.0
2021-08-21T03:40:00Z,00000200,00000000,0001.84,0001.36,0001.17,0000.08,0000.15,0000.07,0000.38,0000.62,0000.55,18.7,25.1,06.8,04.6,0676.8,31.0
2021-08-21T03:41:00Z,00000200,00000000,0001.45,0001.37,0000.82,-000.30,0000.22,0000.16,0000.58,0000.36,0000.23,18.7,25.1,06.8,04.6,0676.8,31.0
2021-08-21T03:42:00Z,00000200,00000000,0002.12,0001.32,0000.52,-000.38,0000.55,0000.20,0000.01,0000.46,0000.03,18.7,25.1,06.7,04.5,0676.8,31.0
2021-08-21T03:43:00Z,00000200,00000000,0002.55,0001.41,0000.70,-000.04,0000.08,0000.10,0000.63,0000.15,0000.46,18.7,25.1,06.6,04.5,0676.8,31.0
2021-08-21T03:44:00Z,00000200,00000000,0001.90,0001.27,0000.66,0000.41,-000.25,0000.15,0000.52,0000.37,0000.16,18.7,25.1,06.7,04.5,0676.8,31.0
2021-08-21T03:45:00Z,00000200,00000000,0002.06,0001.68,0000.89,-000.02,0000.64,0000.12,0000.69,0000.74,0000.42,18.7,25.1,06.8,04.6,0676.8,31.0
2021-08-21T03:46:00Z,00000200,00000000,0001.65,0001.43,0000.59,0000.16,0000.27,0000.28,0000.38,0000.58,0000.24,18.7,25.1,06.9,04.7,0676.8,31.0
2021-08-21T03:47:00Z,00000200,00000000,0002.61,0001.28,0000.89,0000.28,0000.37,0000.21,0000.56,0000.42,0000.59,18.7,25.1,06.9,04.7,0676.8,31.0
2021-08-21T03:48:00Z,00000200,00000000,0002.57,0001.45,0001.02,0000.25,0000.13,0000.09,0000.65,0000.71,0000.48,18.6,25.1,07.0,04.7,0676.8,31.0
2021-08-21T03:49:00Z,00000200,00000000,0001.93,0001.44,0001.07,0000.31,0000.25,-000.19,0000.03,0000.24,0000.12,18.6,25.1,07.0,04.7,0676.7,31.0
2021-08-21T03:50:00Z,00000200,00000000,0002.24,0001.62,0000.71,0000.36,0000.44,-000.14,0000.78,0000.66,0000.47,18.6,25.0,06.9,04.6,0676.8,31.0
2021-08-21T03:51:00Z,00000200,00000000,0002.43,0001.40,0000.60,0000.00,0000.12,0000.34,0000.66,0000.24,0000.41,18.6,25.1,07.0,04.7,0676.7,31.0
2021-08-21T03:52:00Z,00000200,00000000,0002.81,0001.21,0000.59,-000.16,0000.26,0000.27,0000.53,0000.60,0000.50,18.6,25.1,07.0,04.7,0676.7,31.0
2021-08-21T03:53:00Z,00000200,00000000,0002.14,0001.60,0000.84,0000.63,0000.01,0000.04,0000.59,0000.41,0000.19,18.6,25.1,07.2,04.8,0676.7,31.0
2021-08-21T03:54:00Z,00000200,00000000,0001.65,0001.63,0000.84,0000.19,0000.20,0000.12,0000.70,0000.77,0000.75,18.6,25.0,07.3,04.9,0676.7,31.0
2021-08-21T03:55:00Z,00000200,00000000,0002.66,0001.49,0001.31,0000.84,0000.18,0000.10,0000.32,0000.21,0000.31,18.6,25.1,07.3,04.9,0676.7,31.0
2021-08-21T03:56:00Z,00000200,00000000,0002.16,0001.61,0001.14,0000.14,0000.12,0000.09,0001.01,0001.08,0000.55,18.6,25.0,07.3,04.9,0676.7,31.0
2021-08-21T03:57:00Z,00000200,40000000,,,,,,,-000.02,0000.07,-000.03,18.7,25.1,07.4,05.0,0676.6,31.0
2021-08-21T03:58:00Z,00000200,60000000,,,,,,,0000.19,-000.19,0000.18,18.5,25.2,07.1,04.7,0675.7,31.0
2021-08-21T03:59:00Z,00000200,20000000,,,,,,,-000.07,-000.08,-000.16,18.5,25.3,07.1,04.7,0675.7,31.0
